Tehachapi, CA

5:10 PM PDT on July 20, 2017 (GMT -0700)
Tehachapi Municipal

Weather History for KTSP - September, 2012

Change the Weather History Date:

Saturday, September 8, 2012

  Actual Average Record
Temperature  
Mean Temperature 74 °F -  
Max Temperature 91 °F 84 °F 91 °F (2012)
Min Temperature 57 °F 53 °F 48 °F (2016)
Cooling Degree Days 9    
Growing Degree Days 24 (Base 50)    
Moisture  
Dew Point 49 °F    
Average Humidity 43    
Maximum Humidity 72    
Minimum Humidity 23    
Precipitation  
Precipitation 0.00 in - - ()
Sea Level Pressure  
Sea Level Pressure 30.14 in    
Wind  
Wind Speed 5 mph (WNW)    
Max Wind Speed 18 mph    
Max Gust Speed 21 mph    
Visibility 9 miles    
Events Rain    
Averages and records for this station are not official NWS values.
T = Trace of Precipitation, MM = Missing Value Source: NWS Daily Summary

Daily Weather History Graph

Daily Weather History Graph

Search for Another Location

Airport or City:

Trip Planner

Search our weather history database for the weather conditions in past years. The results will help you decide how hot, cold, wet, or windy it might be!

Date:

Astronomy

Sep. 08, 2012 Rise Set
Actual Time 6:31 AM PDT 7:09 PM PDT
Civil Twilight 6:06 AM PDT 7:35 PM PDT
Nautical Twilight 5:36 AM PDT 8:05 PM PDT
Astronomical Twilight 5:05 AM PDT 8:36 PM PDT
Moon No Moon Rise 2:00 PM PDT (9/8)
Length of Visible Light 13h 29m
Length of Day
12h 38m
Waning Gibbous, 48% of the Moon is Illuminated
Sep 8
Waning Gibbous
Sep 15
New
Sep 22
First Quarter
Sep 29
Full
Oct 8
Last Quarter

Hourly Weather History & Observations

Time (PDT) Temp. Dew Point Humidity Pressure Visibility Wind Dir Wind Speed Gust Speed Precip Events Conditions
12:15 AM 64.4 °F 48.2 °F 56% 30.18 in 9.0 mi West 4.6 mph - N/A   Clear
12:35 AM 64.4 °F 48.2 °F 56% 30.18 in 10.0 mi WNW 3.5 mph - N/A   Clear
12:55 AM 64.4 °F 48.2 °F 56% 30.18 in 10.0 mi Calm Calm - N/A   Clear
1:15 AM 64.4 °F 48.2 °F 56% 30.17 in 10.0 mi West 5.8 mph - N/A   Clear
1:35 AM 62.6 °F 48.2 °F 59% 30.18 in 10.0 mi West 6.9 mph - N/A   Clear
1:55 AM 62.6 °F 48.2 °F 59% 30.18 in 10.0 mi Calm Calm - N/A   Clear
2:15 AM 64.4 °F 48.2 °F 56% 30.18 in 10.0 mi West 5.8 mph - N/A   Clear
2:35 AM 64.4 °F 48.2 °F 56% 30.18 in 10.0 mi West 5.8 mph - N/A   Clear
2:55 AM 64.4 °F 48.2 °F 56% 30.17 in 10.0 mi West 3.5 mph - N/A   Clear
3:15 AM 62.6 °F 48.2 °F 59% 30.17 in 10.0 mi West 5.8 mph - N/A   Clear
3:35 AM 62.6 °F 48.2 °F 59% 30.17 in 10.0 mi West 4.6 mph - N/A   Clear
3:55 AM 62.6 °F 48.2 °F 59% 30.17 in 10.0 mi West 5.8 mph - N/A   Clear
4:15 AM 60.8 °F 48.2 °F 63% 30.17 in 10.0 mi West 6.9 mph - N/A   Clear
4:55 AM 62.6 °F 48.2 °F 59% 30.17 in 10.0 mi West 4.6 mph - N/A   Clear
5:15 AM 62.6 °F 48.2 °F 59% 30.17 in 10.0 mi West 3.5 mph - N/A   Clear
5:35 AM 62.6 °F 48.2 °F 59% 30.18 in 10.0 mi Calm Calm - N/A   Clear
5:55 AM 62.6 °F 48.2 °F 59% 30.18 in 10.0 mi Calm Calm - N/A   Clear
6:15 AM 59.0 °F 48.2 °F 67% 30.18 in 10.0 mi Calm Calm - N/A   Clear
6:35 AM 57.2 °F 48.2 °F 72% 30.18 in 8.0 mi Calm Calm - N/A   Clear
6:55 AM 57.2 °F 48.2 °F 72% 30.18 in 8.0 mi Calm Calm - N/A   Clear
7:15 AM 59.0 °F 48.2 °F 67% 30.18 in 8.0 mi SE 3.5 mph - N/A   Clear
7:35 AM 64.4 °F 50.0 °F 59% 30.19 in 9.0 mi Calm Calm - N/A   Clear
7:55 AM 66.2 °F 50.0 °F 56% 30.19 in 9.0 mi Calm Calm - N/A   Clear
8:15 AM 68.0 °F 48.2 °F 49% 30.19 in 10.0 mi Calm Calm - N/A   Clear
8:35 AM 71.6 °F 48.2 °F 43% 30.18 in 10.0 mi WNW 4.6 mph - N/A   Clear
8:55 AM 73.4 °F 48.2 °F 41% 30.19 in 9.0 mi WNW 4.6 mph - N/A   Clear
9:15 AM 75.2 °F 50.0 °F 41% 30.19 in 9.0 mi NW 6.9 mph - N/A   Clear
9:55 AM 77.0 °F 50.0 °F 39% 30.18 in 9.0 mi NW 4.6 mph - N/A   Clear
10:15 AM 78.8 °F 50.0 °F 36% 30.18 in 8.0 mi Calm Calm - N/A   Clear
10:35 AM 82.4 °F 50.0 °F 32% 30.17 in 10.0 mi Calm Calm - N/A   Clear
10:55 AM 82.4 °F 50.0 °F 32% 30.17 in 9.0 mi NW 3.5 mph - N/A   Clear
11:15 AM 84.2 °F 50.0 °F 30% 30.16 in 9.0 mi SSW 3.5 mph - N/A   Clear
11:35 AM 86.0 °F 48.2 °F 27% 30.16 in 8.0 mi WNW 3.5 mph - N/A   Clear
11:55 AM 89.6 °F 48.2 °F 24% 30.15 in 8.0 mi NNW 5.8 mph - N/A   Clear
12:15 PM 91.4 °F 48.2 °F 23% 30.14 in 9.0 mi ESE 9.2 mph - N/A Rain Light Rain
12:35 PM 91.4 °F 48.2 °F 23% 30.14 in 10.0 mi SSE 6.9 mph 17.3 mph N/A Rain Light Rain
12:55 PM 91.4 °F 48.2 °F 23% 30.13 in 9.0 mi SE 8.1 mph - N/A   Clear
1:15 PM 91.4 °F 48.2 °F 23% 30.12 in 10.0 mi South 11.5 mph 20.7 mph N/A Rain Light Rain
1:35 PM 91.4 °F 48.2 °F 23% 30.12 in 9.0 mi South 8.1 mph - N/A Rain Light Rain
1:55 PM 91.4 °F 48.2 °F 23% 30.11 in 10.0 mi ESE 6.9 mph - N/A Rain Light Rain
2:15 PM 91.4 °F 48.2 °F 23% 30.11 in 10.0 mi WNW 6.9 mph - N/A   Clear
2:35 PM 91.4 °F 48.2 °F 23% 30.09 in 9.0 mi NW 8.1 mph 16.1 mph N/A   Clear
2:55 PM 89.6 °F 48.2 °F 24% 30.09 in 10.0 mi NW 15.0 mph 19.6 mph N/A   Partly Cloudy
3:15 PM 89.6 °F 48.2 °F 24% 30.08 in 10.0 mi NW 16.1 mph 20.7 mph N/A   Clear
3:35 PM 87.8 °F 48.2 °F 25% 30.07 in 9.0 mi NW 16.1 mph - N/A   Clear
3:55 PM 87.8 °F 48.2 °F 25% 30.07 in 9.0 mi NW 18.4 mph - N/A   Clear
4:15 PM 86.0 °F 48.2 °F 27% 30.07 in 10.0 mi NW 15.0 mph - N/A   Clear
4:35 PM 84.2 °F 48.2 °F 29% 30.07 in 9.0 mi NW 15.0 mph - N/A   Clear
4:55 PM 84.2 °F 48.2 °F 29% 30.08 in 9.0 mi NW 17.3 mph - N/A   Clear
5:15 PM 82.4 °F 48.2 °F 30% 30.08 in 9.0 mi NW 16.1 mph 20.7 mph N/A   Clear
5:35 PM 82.4 °F 48.2 °F 30% 30.09 in 9.0 mi WNW 11.5 mph - N/A   Clear
5:55 PM 80.6 °F 48.2 °F 32% 30.09 in 9.0 mi NW 12.7 mph - N/A   Clear
6:15 PM 78.8 °F 48.2 °F 34% 30.09 in 9.0 mi NW 12.7 mph - N/A   Clear
6:35 PM 77.0 °F 48.2 °F 36% 30.09 in 8.0 mi WNW 13.8 mph 17.3 mph N/A   Clear
6:55 PM 75.2 °F 48.2 °F 38% 30.10 in 8.0 mi NW 11.5 mph - N/A   Clear
7:15 PM 75.2 °F 48.2 °F 38% 30.11 in 9.0 mi WNW 11.5 mph - N/A   Clear
7:35 PM 73.4 °F 48.2 °F 41% 30.11 in 10.0 mi NW 10.4 mph - N/A   Clear
7:55 PM 73.4 °F 48.2 °F 41% 30.11 in 10.0 mi West 9.2 mph - N/A   Clear
8:15 PM 71.6 °F 48.2 °F 43% 30.12 in 10.0 mi WNW 8.1 mph - N/A   Clear
8:35 PM 71.6 °F 48.2 °F 43% 30.12 in 10.0 mi West 8.1 mph - N/A   Clear
9:35 PM 69.8 °F 48.2 °F 46% 30.14 in 10.0 mi WSW 3.5 mph - N/A   Clear
9:55 PM 68.0 °F 50.0 °F 52% 30.14 in 10.0 mi Calm Calm - N/A   Clear
10:15 PM 68.0 °F 50.0 °F 52% 30.14 in 10.0 mi West 5.8 mph - N/A   Clear
10:55 PM 68.0 °F 50.0 °F 52% 30.14 in 10.0 mi West 5.8 mph - N/A   Mostly Cloudy
11:15 PM 68.0 °F 50.0 °F 52% 30.14 in 10.0 mi West 4.6 mph - N/A   Mostly Cloudy
11:35 PM 68.0 °F 50.0 °F 52% 30.13 in 10.0 mi WNW 3.5 mph - N/A   Partly Cloudy
11:55 PM 66.2 °F 48.2 °F 52% 30.13 in 10.0 mi Calm Calm - N/A   Clear